When you browse on this site, cookies collect data to enhance your experience and personalize the content and advertising you see.
Visit our Privacy Policy to learn more. By continuing to use the site, you agree to this use of cookies and data.
  • In Lithuania
  • List of Countries
  • For 7 days
  • Water Temperature
  • Weather Map
  • Weather Widgets
  • user-avatar
    Login

    Hourly Weather Taba

    Today, 14 November, Thursday

    Time Temperature Precipitation Wind Pressure Humidity
    00:00 +19°C° 0 mm 0 mps 691 mmHg 59%
    01:00 +18°C° 0 mm 0 mps 691 mmHg 60%
    02:00 +18°C° 0 mm 0 mps 691 mmHg 62%
    03:00 +18°C° 0 mm 0 mps 691 mmHg 62%
    04:00 +17°C° 0 mm 0 mps 691 mmHg 62%
    05:00 +17°C° 0 mm 0 mps 691 mmHg 62%
    06:00 +20°C° 0 mm 1 mps 691 mmHg 59%
    07:00 +22°C° 0 mm 1 mps 691 mmHg 57%
    08:00 +23°C° 0 mm 1 mps 692 mmHg 54%
    09:00 +25°C° 0 mm 2 mps 692 mmHg 47%
    10:00 +26°C° 0 mm 2 mps 692 mmHg 40%
    11:00 +28°C° 0 mm 2 mps 693 mmHg 32%
    12:00 +28°C° 0 mm 2 mps 692 mmHg 30%
    13:00 +29°C° 0 mm 2 mps 692 mmHg 28%
    14:00 +29°C° 0 mm 2 mps 692 mmHg 25%
    15:00 +28°C° 0 mm 2 mps 692 mmHg 31%
    16:00 +26°C° 0 mm 2 mps 691 mmHg 37%
    17:00 +25°C° 0 mm 2 mps 691 mmHg 42%
    18:00 +24°C° 0 mm 1 mps 692 mmHg 44%
    19:00 +23°C° 0 mm 1 mps 692 mmHg 46%
    20:00 +20°C° 0 mm 0 mps 692 mmHg 48%
    21:00 +20°C° 0 mm 0 mps 692 mmHg 49%
    22:00 +19°C° 0 mm 0 mps 692 mmHg 50%
    23:00 +19°C° 0 mm 0 mps 692 mmHg 51%

    Tomorrow, 15 November, Friday

    Time Temperature Precipitation Wind Pressure Humidity
    00:00 +20°C° 0 mm 1 mps 692 mmHg 51%
    01:00 +19°C° 0 mm 2 mps 692 mmHg 52%
    02:00 +18°C° 0 mm 3 mps 692 mmHg 52%
    03:00 +18°C° 0 mm 3 mps 692 mmHg 58%
    04:00 +17°C° 0 mm 3 mps 692 mmHg 63%
    05:00 +17°C° 0 mm 4 mps 692 mmHg 69%
    06:00 +17°C° 0 mm 4 mps 693 mmHg 69%
    07:00 +17°C° 0 mm 3 mps 693 mmHg 68%
    08:00 +18°C° 0 mm 3 mps 693 mmHg 68%
    09:00 +19°C° 0 mm 3 mps 693 mmHg 62%
    10:00 +20°C° 0 mm 3 mps 694 mmHg 56%
    11:00 +22°C° 0 mm 3 mps 694 mmHg 50%
    12:00 +22°C° 0 mm 4 mps 693 mmHg 47%
    13:00 +23°C° 0 mm 5 mps 693 mmHg 44%
    14:00 +23°C° 0 mm 5 mps 693 mmHg 41%
    15:00 +22°C° 0 mm 5 mps 693 mmHg 40%
    16:00 +21°C° 0 mm 5 mps 693 mmHg 39%
    17:00 +20°C° 0 mm 5 mps 692 mmHg 38%
    18:00 +19°C° 0 mm 5 mps 693 mmHg 49%
    19:00 +17°C° 0 mm 5 mps 693 mmHg 59%
    20:00 +16°C° 0 mm 5 mps 693 mmHg 69%
    21:00 +16°C° 0 mm 5 mps 693 mmHg 76%
    22:00 +15°C° 0 mm 4 mps 693 mmHg 82%
    23:00 +15°C° 0 mm 4 mps 693 mmHg 89%

    Day after tomorrow, 16 November, Saturday

    Time Temperature Precipitation Wind Pressure Humidity
    00:00 +14°C° 0 mm 4 mps 693 mmHg 90%
    01:00 +14°C° 0 mm 4 mps 692 mmHg 91%
    02:00 +13°C° 0 mm 4 mps 692 mmHg 92%
    03:00 +13°C° 0 mm 4 mps 692 mmHg 92%
    04:00 +13°C° 0 mm 4 mps 692 mmHg 92%
    05:00 +12°C° 0 mm 4 mps 692 mmHg 92%
    06:00 +13°C° 0 mm 4 mps 692 mmHg 87%
    07:00 +13°C° 0 mm 4 mps 692 mmHg 83%
    08:00 +14°C° 0 mm 4 mps 692 mmHg 78%
    09:00 +15°C° 0 mm 5 mps 692 mmHg 72%
    10:00 +16°C° 0 mm 5 mps 692 mmHg 66%
    11:00 +17°C° 0 mm 5 mps 692 mmHg 60%
    12:00 +19°C° 0 mm 5 mps 692 mmHg 53%
    13:00 +20°C° 0 mm 5 mps 691 mmHg 46%
    14:00 +21°C° 0 mm 5 mps 691 mmHg 39%
    15:00 +20°C° 0 mm 5 mps 691 mmHg 45%
    16:00 +19°C° 0 mm 5 mps 691 mmHg 50%
    17:00 +17°C° 0 mm 5 mps 690 mmHg 56%
    18:00 +16°C° 0 mm 5 mps 690 mmHg 61%
    19:00 +17°C° 0 mm 4 mps 690 mmHg 66%
    20:00 +15°C° 0 mm 4 mps 690 mmHg 72%
    21:00 +15°C° 0 mm 4 mps 691 mmHg 72%
    22:00 +14°C° 0 mm 3 mps 691 mmHg 73%
    23:00 +14°C° 0 mm 3 mps 691 mmHg 73%

    17 November, Sunday

    Time Temperature Precipitation Wind Pressure Humidity
    00:00 +14°C° 0 mm 3 mps 691 mmHg 75%
    01:00 +13°C° 0 mm 3 mps 690 mmHg 77%
    02:00 +13°C° 0 mm 3 mps 690 mmHg 79%
    03:00 +13°C° 0 mm 3 mps 690 mmHg 78%
    04:00 +13°C° 0 mm 4 mps 690 mmHg 77%
    05:00 +12°C° 0 mm 4 mps 690 mmHg 77%
    06:00 +14°C° 0 mm 5 mps 691 mmHg 71%
    07:00 +15°C° 0 mm 5 mps 691 mmHg 65%
    08:00 +16°C° 0 mm 6 mps 692 mmHg 59%
    09:00 +17°C° 0 mm 7 mps 692 mmHg 54%
    10:00 +18°C° 0 mm 7 mps 692 mmHg 48%
    11:00 +21°C° 0 mm 8 mps 692 mmHg 43%
    12:00 +21°C° 0 mm 7 mps 692 mmHg 41%
    13:00 +22°C° 0 mm 7 mps 691 mmHg 39%
    14:00 +23°C° 0 mm 6 mps 691 mmHg 37%
    15:00 +22°C° 0 mm 6 mps 691 mmHg 40%
    16:00 +21°C° 0 mm 6 mps 691 mmHg 43%
    17:00 +20°C° 0 mm 6 mps 692 mmHg 46%
    18:00 +20°C° 0 mm 6 mps 692 mmHg 47%
    19:00 +18°C° 0 mm 7 mps 692 mmHg 47%
    20:00 +18°C° 0 mm 7 mps 692 mmHg 48%
    21:00 +17°C° 0 mm 6 mps 692 mmHg 48%
    22:00 +16°C° 0 mm 6 mps 692 mmHg 48%
    23:00 +16°C° 0 mm 5 mps 692 mmHg 48%

    18 November, Monday

    Time Temperature Precipitation Wind Pressure Humidity
    00:00 +15°C° 0 mm 5 mps 692 mmHg 49%
    01:00 +14°C° 0 mm 4 mps 692 mmHg 50%
    02:00 +14°C° 0 mm 4 mps 691 mmHg 51%
    03:00 +14°C° 0 mm 3 mps 692 mmHg 52%
    04:00 +14°C° 0 mm 3 mps 692 mmHg 52%
    05:00 +13°C° 0 mm 3 mps 692 mmHg 52%
    06:00 +14°C° 0 mm 3 mps 692 mmHg 49%
    07:00 +16°C° 0 mm 3 mps 692 mmHg 47%
    08:00 +17°C° 0 mm 3 mps 693 mmHg 44%
    09:00 +18°C° 0 mm 3 mps 693 mmHg 41%
    10:00 +20°C° 0 mm 3 mps 693 mmHg 38%
    11:00 +21°C° 0 mm 3 mps 693 mmHg 35%
    12:00 +22°C° 0 mm 3 mps 693 mmHg 34%
    13:00 +23°C° 0 mm 4 mps 693 mmHg 33%
    14:00 +23°C° 0 mm 4 mps 692 mmHg 32%
    15:00 +22°C° 0 mm 4 mps 692 mmHg 33%
    16:00 +21°C° 0 mm 4 mps 692 mmHg 35%
    17:00 +20°C° 0 mm 4 mps 692 mmHg 37%
    18:00 +19°C° 0 mm 4 mps 693 mmHg 38%
    19:00 +18°C° 0 mm 4 mps 693 mmHg 39%
    20:00 +18°C° 0 mm 4 mps 693 mmHg 40%
    21:00 +17°C° 0 mm 3 mps 693 mmHg 41%
    22:00 +16°C° 0 mm 3 mps 693 mmHg 43%
    23:00 +16°C° 0 mm 2 mps 693 mmHg 45%

    19 November, Tuesday

    Time Temperature Precipitation Wind Pressure Humidity
    00:00 +15°C° 0 mm 2 mps 692 mmHg 47%
    01:00 +15°C° 0 mm 2 mps 692 mmHg 48%
    02:00 +14°C° 0 mm 2 mps 692 mmHg 49%
    03:00 +14°C° 0 mm 2 mps 692 mmHg 50%
    04:00 +14°C° 0 mm 2 mps 692 mmHg 51%
    05:00 +13°C° 0 mm 2 mps 692 mmHg 52%
    06:00 +14°C° 0 mm 2 mps 693 mmHg 48%
    07:00 +16°C° 0 mm 2 mps 693 mmHg 44%
    08:00 +17°C° 0 mm 2 mps 694 mmHg 39%
    09:00 +18°C° 0 mm 2 mps 694 mmHg 37%
    10:00 +20°C° 0 mm 2 mps 694 mmHg 34%
    11:00 +21°C° 0 mm 3 mps 694 mmHg 31%
    12:00 +22°C° 0 mm 3 mps 693 mmHg 29%
    13:00 +22°C° 0 mm 3 mps 693 mmHg 27%
    14:00 +24°C° 0 mm 3 mps 692 mmHg 25%
    15:00 +21°C° 0 mm 4 mps 692 mmHg 28%
    16:00 +20°C° 0 mm 4 mps 692 mmHg 31%
    17:00 +19°C° 0 mm 4 mps 692 mmHg 35%
    18:00 +18°C° 0 mm 4 mps 692 mmHg 36%
    19:00 +17°C° 0 mm 4 mps 692 mmHg 38%
    20:00 +16°C° 0 mm 3 mps 692 mmHg 40%
    21:00 +14°C° 0 mm 3 mps 692 mmHg 41%
    22:00 +14°C° 0 mm 3 mps 692 mmHg 42%
    23:00 +14°C° 0 mm 3 mps 692 mmHg 43%
    Show more